Tracking 31027 objects as of 19-Jul-2025
HD Live streaming from Space Station
objects crossing your sky now

ATLAS 28E DEB

Track ATLAS 28E DEB now!
10-day predictions


NORAD ID: 20575
Int'l Code: 1990-031G
Perigee: 560.5 km
Apogee: 597.0 km
Inclination: 90.4 °
Period: 96.1 minutes
Semi major axis: 6949 km
RCS: Unknown
Launch date: April 11, 1990
Source: United States (US)
Launch site: AIR FORCE WESTERN TEST RANGE (AFWTR)

Note: This is SATELLITE DEBRIS
Your satellite tracking list
STARLINK-30103
Track 1 satellite(s)




NASA's NSSDC Master Catalog

Two Line Element Set (TLE):
1 20575U 90031G   25199.49260502  .00002861  00000-0  23653-3 0  9995
2 20575  90.3581 283.2979 0026326 175.1881 184.9611 14.98473040345065
Source of the keplerian elements: AFSPC